Jackson, MN

9:15 PM CST on November 12, 2019 (GMT -0600)
Jackson Municipal

Weather History for KMJQ - August, 2019

Change the Weather History Date:

Wednesday, August 14, 2019

  Actual Average Record
Temperature  
Mean Temperature 65 °F -  
Max Temperature 71 °F 76 °F 87 °F (2003)
Min Temperature 59 °F 56 °F 44 °F (1999)
Growing Degree Days 15 (Base 50)    
Moisture  
Dew Point 59 °F    
Average Humidity 80    
Maximum Humidity 100    
Minimum Humidity 60    
Precipitation  
Precipitation 0.00 in - - ()
Sea Level Pressure  
Sea Level Pressure 30.08 in    
Wind  
Wind Speed 8 mph (NW)    
Max Wind Speed 15 mph    
Max Gust Speed 20 mph    
Visibility 9 miles    
Events      
Averages and records for this station are not official NWS values.
T = Trace of Precipitation, MM = Missing Value Source: NWS Daily Summary

Daily Weather History Graph

Daily Weather History Graph

Search for Another Location

Airport or City:

Astronomy

Aug. 14, 2019 Rise Set
Actual Time 6:23 AM CDT 8:25 PM CDT
Civil Twilight 5:51 AM CDT 8:56 PM CDT
Nautical Twilight 5:13 AM CDT 9:34 PM CDT
Astronomical Twilight 4:31 AM CDT 10:16 PM CDT
Moon 8:22 PM CDT (8/14) 5:18 AM CDT (8/14)
Length of Visible Light 15h 04m
Length of Day
14h 02m
Waxing Gibbous, 99% of the Moon is Illuminated
Aug 14
Waxing Gibbous
Aug 15
Full
Aug 23
Last Quarter
Aug 30
New
Sep 5
First Quarter

Hourly Weather History & Observations

Time (CDT) Temp. Dew Point Humidity Pressure Visibility Wind Dir Wind Speed Gust Speed Precip Events Conditions
12:15 AM 64.4 °F 59.0 °F 83% 30.05 in 10.0 mi WNW 8.1 mph - N/A   Overcast
12:35 AM 64.4 °F 59.0 °F 83% 30.05 in 10.0 mi WNW 8.1 mph - N/A   Overcast
12:36 AM 64.4 °F 59.0 °F 83% 30.05 in 10.0 mi WNW 11.5 mph - N/A   Overcast
12:55 AM 62.6 °F 59.0 °F 88% 30.05 in 10.0 mi NW 13.8 mph - N/A   Overcast
1:15 AM 62.6 °F 59.0 °F 88% 30.05 in 10.0 mi WNW 12.7 mph - N/A   Overcast
1:35 AM 62.6 °F 59.0 °F 88% 30.05 in 10.0 mi WNW 9.2 mph - N/A   Overcast
1:55 AM 62.6 °F 57.2 °F 82% 30.04 in 10.0 mi WNW 11.5 mph - N/A   Overcast
2:15 AM 62.6 °F 57.2 °F 82% 30.04 in 10.0 mi WNW 10.4 mph 17.3 mph N/A   Overcast
2:35 AM 62.6 °F 57.2 °F 82% 30.04 in 10.0 mi NW 10.4 mph - N/A   Overcast
2:55 AM 62.6 °F 57.2 °F 82% 30.04 in 10.0 mi WNW 10.4 mph - N/A   Overcast
3:15 AM 62.6 °F 55.4 °F 77% 30.04 in 10.0 mi NW 11.5 mph 19.6 mph N/A   Overcast
3:35 AM 62.6 °F 55.4 °F 77% 30.05 in 10.0 mi WNW 11.5 mph - N/A   Overcast
3:55 AM 62.6 °F 55.4 °F 77% 30.05 in 10.0 mi WNW 12.7 mph 18.4 mph N/A   Overcast
4:15 AM 62.6 °F 55.4 °F 77% 30.04 in 10.0 mi WNW 10.4 mph - N/A   Overcast
4:35 AM 60.8 °F 55.4 °F 82% 30.05 in 10.0 mi WNW 11.5 mph 16.1 mph N/A   Overcast
4:55 AM 60.8 °F 55.4 °F 82% 30.05 in 10.0 mi NW 10.4 mph - N/A   Overcast
4:56 AM 60.8 °F 55.4 °F 82% 30.05 in 10.0 mi NW 11.5 mph - N/A   Overcast
5:15 AM 60.8 °F 55.4 °F 82% 30.05 in 10.0 mi WNW 12.7 mph - N/A   Overcast
5:35 AM 60.8 °F 55.4 °F 82% 30.05 in 10.0 mi NW 10.4 mph - N/A   Overcast
5:55 AM 60.8 °F 55.4 °F 82% 30.06 in 7.0 mi WNW 9.2 mph - N/A   Overcast
5:56 AM 60.8 °F 55.4 °F 82% 30.06 in 7.0 mi WNW 10.4 mph - N/A   Overcast
6:15 AM 60.8 °F 57.2 °F 88% 30.06 in 10.0 mi WNW 8.1 mph - N/A   Overcast
6:35 AM 60.8 °F 57.2 °F 88% 30.06 in 10.0 mi NW 10.4 mph - N/A   Overcast
6:55 AM 60.8 °F 57.2 °F 88% 30.06 in 10.0 mi NW 8.1 mph - N/A   Overcast
6:56 AM 60.8 °F 57.2 °F 88% 30.06 in 10.0 mi NW 8.1 mph - N/A   Overcast
7:15 AM 60.8 °F 59.0 °F 94% 30.07 in 5.0 mi NW 11.5 mph - N/A   Overcast
7:35 AM 60.8 °F 59.0 °F 94% 30.07 in 2.0 mi NW 6.9 mph - N/A   Overcast
7:55 AM 60.8 °F 59.0 °F 94% 30.07 in 1.8 mi NW 9.2 mph - N/A   Overcast
7:56 AM 60.8 °F 59.0 °F 94% 30.07 in 1.8 mi NW 8.1 mph - N/A   Overcast
8:15 AM 60.8 °F 59.0 °F 94% 30.07 in 2.0 mi NW 8.1 mph - N/A   Overcast
8:35 AM 60.8 °F 60.8 °F 100% 30.07 in 3.0 mi NW 10.4 mph - N/A   Overcast
8:55 AM 62.6 °F 60.8 °F 94% 30.08 in 10.0 mi NW 10.4 mph - N/A   Overcast
9:15 AM 62.6 °F 60.8 °F 94% 30.08 in 7.0 mi NNW 10.4 mph 16.1 mph N/A   Overcast
9:35 AM 62.6 °F 60.8 °F 94% 30.09 in 10.0 mi NNW 9.2 mph 16.1 mph N/A   Overcast
9:55 AM 62.6 °F 60.8 °F 94% 30.09 in 10.0 mi NW 8.1 mph 16.1 mph N/A   Overcast
10:15 AM 64.4 °F 60.8 °F 88% 30.10 in 10.0 mi NW 10.4 mph - N/A   Overcast
10:35 AM 66.2 °F 60.8 °F 83% 30.10 in 10.0 mi NW 11.5 mph 17.3 mph N/A   Overcast
10:55 AM 68.0 °F 60.8 °F 78% 30.11 in 10.0 mi NW 15.0 mph - N/A   Overcast
11:15 AM 68.0 °F 60.8 °F 78% 30.11 in 10.0 mi NNW 8.1 mph - N/A   Mostly Cloudy
11:35 AM 66.2 °F 59.0 °F 78% 30.12 in 10.0 mi NW 13.8 mph 19.6 mph N/A   Overcast
11:55 AM 69.8 °F 60.8 °F 73% 30.12 in 10.0 mi NNW 10.4 mph 18.4 mph N/A   Scattered Clouds
12:15 PM 68.0 °F 59.0 °F 73% 30.12 in 10.0 mi NW 12.7 mph - N/A   Mostly Cloudy
12:35 PM 69.8 °F 59.0 °F 68% 30.12 in 10.0 mi NNW 6.9 mph - N/A   Scattered Clouds
12:55 PM 69.8 °F 59.0 °F 68% 30.11 in 10.0 mi NNW 10.4 mph - N/A   Mostly Cloudy
1:15 PM 69.8 °F 59.0 °F 68% 30.11 in 10.0 mi NW 10.4 mph - N/A   Overcast
1:35 PM 71.6 °F 60.8 °F 69% 30.11 in 10.0 mi North 5.8 mph - N/A   Overcast
1:55 PM 69.8 °F 60.8 °F 73% 30.10 in 10.0 mi NNW 8.1 mph 17.3 mph N/A   Overcast
2:15 PM 69.8 °F 59.0 °F 68% 30.10 in 10.0 mi North 6.9 mph - N/A   Overcast
2:35 PM 69.8 °F 59.0 °F 68% 30.10 in 10.0 mi NNW 6.9 mph - N/A   Overcast
2:55 PM 69.8 °F 60.8 °F 73% 30.10 in 10.0 mi North 6.9 mph - N/A   Mostly Cloudy
3:15 PM 69.8 °F 59.0 °F 68% 30.09 in 10.0 mi NW 9.2 mph - N/A   Mostly Cloudy
3:35 PM 71.6 °F 57.2 °F 60% 30.08 in 10.0 mi NNW 8.1 mph - N/A   Scattered Clouds
3:55 PM 69.8 °F 59.0 °F 68% 30.08 in 10.0 mi NNW 6.9 mph - N/A   Scattered Clouds
4:15 PM 69.8 °F 60.8 °F 73% 30.08 in 10.0 mi North 10.4 mph - N/A   Mostly Cloudy
4:35 PM 69.8 °F 59.0 °F 68% 30.09 in 10.0 mi North 4.6 mph - N/A   Overcast
4:55 PM 69.8 °F 59.0 °F 68% 30.08 in 10.0 mi North 3.5 mph - N/A   Overcast
5:15 PM 69.8 °F 59.0 °F 68% 30.09 in 10.0 mi NNW 6.9 mph - N/A   Overcast
5:35 PM 69.8 °F 59.0 °F 68% 30.08 in 10.0 mi NNW 6.9 mph - N/A   Overcast
5:36 PM 69.8 °F 59.0 °F 68% 30.08 in 10.0 mi North 5.8 mph - N/A   Overcast
5:55 PM 69.8 °F 59.0 °F 68% 30.08 in 10.0 mi North 3.5 mph - N/A   Overcast
6:15 PM 69.8 °F 59.0 °F 68% 30.08 in 10.0 mi Calm Calm - N/A   Overcast
6:35 PM 69.8 °F 59.0 °F 68% 30.08 in 10.0 mi Calm Calm - N/A   Overcast
6:55 PM 69.8 °F 59.0 °F 68% 30.07 in 10.0 mi NNW 3.5 mph - N/A   Overcast
7:15 PM 69.8 °F 59.0 °F 68% 30.08 in 10.0 mi Calm Calm - N/A   Overcast
7:16 PM 69.8 °F 59.0 °F 68% 30.08 in 10.0 mi Calm Calm - N/A   Overcast
7:35 PM 69.8 °F 60.8 °F 73% 30.08 in 10.0 mi Calm Calm - N/A   Overcast
7:55 PM 68.0 °F 59.0 °F 73% 30.07 in 10.0 mi NNE 4.6 mph - N/A   Overcast
7:56 PM 68.0 °F 59.0 °F 73% 30.07 in 10.0 mi NNE 4.6 mph - N/A   Overcast
8:15 PM 66.2 °F 60.8 °F 83% 30.08 in 10.0 mi Calm Calm - N/A   Overcast
8:35 PM 66.2 °F 60.8 °F 83% 30.08 in 10.0 mi Calm Calm - N/A   Mostly Cloudy
8:36 PM 66.2 °F 60.8 °F 83% 30.08 in 10.0 mi Calm Calm - N/A   Scattered Clouds
8:55 PM 64.4 °F 59.0 °F 83% 30.08 in 10.0 mi Calm Calm - N/A   Scattered Clouds
9:15 PM 62.6 °F 59.0 °F 88% 30.09 in 10.0 mi Calm Calm - N/A   Clear
9:16 PM 62.6 °F 59.0 °F 88% 30.09 in 10.0 mi Calm Calm - N/A   Clear
9:35 PM 62.6 °F 59.0 °F 88% 30.09 in 10.0 mi Calm Calm - N/A   Clear
9:55 PM 60.8 °F 59.0 °F 94% 30.10 in 10.0 mi Calm Calm - N/A   Clear
10:16 PM 60.8 °F 57.2 °F 88% 30.10 in 10.0 mi Calm Calm - N/A   Clear
10:35 PM 60.8 °F 57.2 °F 88% 30.10 in 10.0 mi West 3.5 mph - N/A   Clear
10:55 PM 60.8 °F 57.2 °F 88% 30.10 in 10.0 mi Calm Calm - N/A   Clear
11:16 PM 60.8 °F 55.4 °F 82% 30.10 in 10.0 mi Calm Calm - N/A   Scattered Clouds
11:35 PM 59.0 °F 55.4 °F 88% 30.10 in 10.0 mi Calm Calm - N/A   Clear
11:55 PM 60.8 °F 57.2 °F 88% 30.10 in 10.0 mi Calm Calm - N/A   Clear